San Francisco, CA

6:25 AM PDT on March 25, 2017 (GMT -0700)
San Francisco International

Weather History for KSFO - November, 2013

Change the Weather History Date:

Tuesday, November 5, 2013

  Actual Average Record
Temperature  
Mean Temperature 61 °F 58 °F  
Max Temperature 71 °F 66 °F 79 °F (2012)
Min Temperature 50 °F 50 °F 36 °F (1946)
Degree Days  
Heating Degree Days 4 7  
Month to date heating degree days 33 33  
Since 1 July heating degree days 309 320  
Cooling Degree Days 0 0  
Month to date cooling degree days 0 0  
Year to date cooling degree days 164 163  
Growing Degree Days 10 (Base 50)    
Moisture  
Dew Point 38 °F    
Average Humidity 44    
Maximum Humidity 66    
Minimum Humidity 22    
Precipitation  
Precipitation 0.00 in 0.06 in 2.14 in (1994)
Month to date precipitation 0.00 0.31  
Year to date precipitation 2.12 14.55  
Since 1 July precipitation 0.23  
Sea Level Pressure  
Sea Level Pressure 30.16 in    
Wind  
Wind Speed 4 mph (West)    
Max Wind Speed 15 mph    
Max Gust Speed 17 mph    
Visibility 10 miles    
Events      
T = Trace of Precipitation, MM = Missing Value Source: NWS Daily Summary

Daily Weather History Graph

Daily Weather History Graph

Search for Another Location

Airport or City:

Trip Planner

Search our weather history database for the weather conditions in past years. The results will help you decide how hot, cold, wet, or windy it might be!

Date:

Astronomy

Nov. 05, 2013 Rise Set
Actual Time 6:39 AM PST 5:06 PM PST
Civil Twilight 6:11 AM PST 5:33 PM PST
Nautical Twilight 5:40 AM PST 6:05 PM PST
Astronomical Twilight 5:09 AM PST 6:35 PM PST
Moon 8:58 AM PST (11/5) 7:15 PM PST (11/5)
Length of Visible Light 11h 22m
Length of Day
10h 27m
Waxing Crescent, 7% of the Moon is Illuminated
Nov 5
Waxing Crescent
Nov 9
First Quarter
Nov 17
Full
Nov 25
Last Quarter
Dec 2
New

Hourly Weather History & Observations

Time (PST) Temp. Dew Point Humidity Pressure Visibility Wind Dir Wind Speed Gust Speed Precip Events Conditions
12:56 AM 63.0 °F 36.0 °F 37% 30.08 in 10.0 mi North 12.7 mph - N/A   Clear
1:56 AM 59.0 °F 32.0 °F 36% 30.08 in 10.0 mi SSW 3.5 mph - N/A   Clear
2:56 AM 60.1 °F 30.9 °F 33% 30.09 in 10.0 mi Calm Calm - N/A   Clear
3:56 AM 53.1 °F 39.9 °F 61% 30.11 in 10.0 mi West 8.1 mph - N/A   Clear
4:56 AM 51.1 °F 39.9 °F 66% 30.12 in 10.0 mi West 6.9 mph - N/A   Clear
5:56 AM 52.0 °F 36.0 °F 54% 30.14 in 10.0 mi WNW 5.8 mph - N/A   Clear
6:56 AM 51.1 °F 37.0 °F 59% 30.16 in 10.0 mi South 5.8 mph - N/A   Partly Cloudy
7:56 AM 57.0 °F 37.0 °F 47% 30.17 in 10.0 mi Calm Calm - N/A   Partly Cloudy
8:56 AM 61.0 °F 42.1 °F 50% 30.19 in 10.0 mi Calm Calm - N/A   Partly Cloudy
9:56 AM 63.0 °F 43.0 °F 48% 30.19 in 10.0 mi Calm Calm - N/A   Partly Cloudy
10:56 AM 64.0 °F 45.0 °F 50% 30.19 in 10.0 mi Calm Calm - N/A   Partly Cloudy
11:56 AM 69.1 °F 28.9 °F 22% 30.17 in 10.0 mi Calm Calm - N/A   Partly Cloudy
12:56 PM 71.1 °F 36.0 °F 28% 30.16 in 10.0 mi NNE 3.5 mph - N/A   Scattered Clouds
1:56 PM 70.0 °F 39.0 °F 32% 30.14 in 10.0 mi ENE 3.5 mph - N/A   Mostly Cloudy
2:56 PM 69.1 °F 39.9 °F 35% 30.14 in 10.0 mi Calm Calm - N/A   Scattered Clouds
3:56 PM 66.9 °F 37.0 °F 33% 30.14 in 10.0 mi West 10.4 mph - N/A   Scattered Clouds
4:56 PM 64.9 °F 33.1 °F 31% 30.14 in 10.0 mi WNW 8.1 mph - N/A   Partly Cloudy
5:56 PM 64.0 °F 30.9 °F 29% 30.15 in 10.0 mi WNW 13.8 mph - N/A   Partly Cloudy
6:56 PM 60.1 °F 35.1 °F 39% 30.17 in 10.0 mi West 9.2 mph - N/A   Clear
7:56 PM 60.1 °F 39.0 °F 46% 30.18 in 10.0 mi West 4.6 mph - N/A   Clear
8:56 PM 57.9 °F 37.9 °F 47% 30.20 in 10.0 mi Calm Calm - N/A   Clear
9:56 PM 57.9 °F 37.9 °F 47% 30.22 in 10.0 mi Calm Calm - N/A   Clear
10:56 PM 55.9 °F 44.1 °F 64% 30.22 in 10.0 mi West 5.8 mph - N/A   Clear
11:56 PM 54.0 °F 42.1 °F 64% 30.21 in 10.0 mi SSE 3.5 mph - N/A   Clear